Location: La Oliva
(42.2466°N, 2.9955°E)
Time: 10:23:48
(UTC+00:00)

FALCON 9 DEB - Pass Details

Date: 22 April 2021
Orbit: 369 x 385 km, 53.0° (Epoch: 10 May)

Event Time Altitude Azimuth Distance (km) Brightness Sun altitude
Rises 19:38:22 0° 224° (SW) 2,206 6.9 -11.2°
Reaches altitude 10° 19:40:25 10° 221° (SW) 1,360 5.8 -11.5°
Maximum altitude 19:43:24 61° 140° (SE) 422 2.7 -12.0°
Drops below altitude 10° 19:46:25 10° 59° (ENE) 1,368 5.4 -12.5°
Enters shadow 19:47:11 - 57° (ENE) 1,686 5.8 -12.6°
